Location: Villingen
(48.0639°N, 8.4609°E)
Time: 23:36:54
(UTC+01:00)

ISS - Pass Details

Date: 16 November 2017
Orbit: 402 x 407 km, 51.6° (Epoch: 21 November)

Event Time Altitude Azimuth Distance (km) Brightness Sun altitude
Exits shadow 05:38:09 36° 194° (SSW) 662 -2.9 -19.2°
Drops below altitude 10° 05:40:46 10° 145° (SE) 1,449 -0.5 -18.8°
Sets 05:42:55 0° 136° (SE) 2,305 0.8 -18.5°
